STARLINK-32796 (62739 NORAD) Tracking and Keplerian Element Data

This shows tracking and keplerian element data for the satellite.

Feedback or suggestion? Click here.




ElementValue
Catalog62739
NameSTARLINK-32796
Epoch Orbit5098
Epoch Day353.40728498
Epoch Year2025
RAAN247.3993
Inclination43.0004
Eccentricity7.89E-05
Argument of Perigee337.3206
Mean Anonmoly22.7611
Mean Motion15.27596152
Decay Rate0.00015421
L11 62739U 25014E 25353.40728498 .00015421 00000+0 56845-3 0 9992
L22 62739 43.0004 247.3993 0000789 337.3206 22.7611 15.27596152 50989



Live tracking and technical data element details for STARLINK-32796 (NORAD 62739). STARLINK-32796 can be tracked NOW for your location showing map with azimuth and elevation plus other details from your city location.







IsCatalogInMostPopularTable: catalog: 62739, numindb: 244
Update: records affected: 1



GetName: 62739 STARLINK-32796

Hit Count: updated at: Tue, 20 Jan 2026 18:47:50 GMT